Dewpoint
45 48 49 48 47 47 47 39 28 42 46 35 32 31 35 36 35 34 37 33 37 33 28 25 28 25 23 24 32 32 32 30 25 25 28 31 31 31 33 32 31 31 29 28
45 48 48 47 46 48 42 34 33 45 43 28 30 32 34 37 35 34 39 31 36 38 36 30 26 28 29 25 28 31 32 30 27 29 30 31 30 32 32 33 34 31 30 29
45 47 47 46 47 46 39 33 29 36 39 37 33 31 32 35 39 36 40 37 34 37 39 41 38 30 29 29 30 33 33 30 24 19 22 31 31 32 32 32 31 31 31 31
45 47 47 46 48 45 37 34 32 33 28 30 32 33 34 34 35 38 41 39 36 37 36 39 40 40 37 35 29 32 34 30 30 28 27 30 28 32 32 32 31 31 31 31
44 48 46 47 48 45 36 33 32 35 31 32 31 32 31 34 35 36 38 37 38 38 36 37 37 41 40 36 38 35 42 36 34 34 33 35 33 32 32 32 31 31 32 31
45 48 47 48 47 44 37 39 35 31 31 32 30 30 29 33 36 37 37 39 38 37 38 40 42 44 44 43 41 40 38 40 36 34 36 37 35 34 34 33 32 31 30 32
45 47 48 47 46 42 35 36 35 31 28 29 31 32 32 29 32 35 35 36 38 39 45 46 45 45 45 45 44 45 40 40 37 35 37 30 37 38 36 34 32 32 32 32
45 46 46 45 44 40 35 36 35 32 27 31 31 33 32 34 36 34 37 38 40 42 42 39 37 36 39 39 44 43 44 39 33 33 34 35 33 31 35 33 33 33 30 31
45 45 45 45 44 41 38 38 37 35 28 26 30 32 34 31 33 35 36 39 43 43 40 37 33 30 32 32 38 45 42 39 36 33 31 29 30 29 29 30 26 30 31 31
47 45 45 45 44 43 39 39 39 35 29 31 27 27 31 34 34 34 37 38 39 44 38 33 32 31 34 31 32 34 36 35 32 32 31 32 32 29 33 28 26 31 31 31
46 45 45 44 44 43 39 38 41 37 33 33 36 35 36 34 33 31 36 37 39 40 36 35 34 33 35 34 34 33 33 32 31 32 31 26 32 29 29 32 33 29 31 36
44 45 45 44 44 44 40 36 41 41 33 34 37 37 38 37 36 34 34 34 38 40 39 37 37 35 37 35 31 38 34 36 34 34 33 35 33 31 36 33 30 30 29 36
45 44 45 45 44 42 40 37 39 39 34 33 34 33 38 38 38 38 33 36 40 40 42 40 37 35 36 33 34 35 37 38 35 35 35 34 34 33 34 33 31 30 30 36
44 44 43 44 44 43 41 38 40 37 35 27 29 36 35 37 38 39 37 36 37 43 42 38 36 36 38 33 33 34 37 38 36 35 34 34 32 34 30 31 29 33 36 37
43 43 43 42 42 43 42 41 41 41 33 29 32 34 36 36 37 36 39 37 36 36 35 33 34 37 37 36 36 35 37 35 35 34 35 34 30 28 28 26 26 29 33 35
39 42 41 41 40 41 39 34 39 42 40 33 26 34 34 35 35 34 37 40 39 39 35 34 37 40 36 33 32 37 40 38 37 36 37 34 31 26 25 24 24 25 27 28
40 40 42 41 41 40 35 34 37 41 40 32 28 28 33 34 33 33 33 36 35 36 36 35 35 36 37 34 32 38 39 39 37 34 34 31 27 25 26 25 23 23 23 23
39 39 40 41 39 37 35 38 40 41 36 34 28 27 30 34 31 30 32 32 32 32 32 34 32 34 35 31 34 36 34 31 32 32 31 30 27 25 24 22 21 20 18 17
39 40 40 37 35 32 33 39 39 39 36 29 29 24 24 35 31 32 32 32 28 34 31 31 33 31 28 28 30 30 28 26 26 25 25 24 21 18 17 19 20 19 19 19
39 38 34 30 32 37 38 33 32 32 32 33 29 31 26 32 31 30 30 31 29 25 29 32 29 27 28 27 26 25 25 22 17 15 20 19 17 17 15 14 17 19 20 23
35 33 28 36 37 31 32 27 28 30 28 31 30 31 29 33 28 28 30 27 27 22 23 23 25 16 18 24 23 23 21 19 19 24 25 21 20 20 23 24 24 24 25 28
33 31 33 33 31 29 22 20 21 27 25 29 29 30 31 32 32 29 27 23 26 22 21 20 18 17 26 27 28 28 29 31 32 32 31 32 32 32 32 34 30 31 32 32
37 32 24 23 21 17 18 15 17 21 28 30 30 28 30 31 31 25 21 22 22 22 20 19 19 19 28 29 30 30 31 30 31 31 31 31 32 33 34 33 34 33 32 32
25 21 18 19 21 22 21 23 26 28 28 31 28 28 27 26 23 24 20 21 22 18 15 15 20 24 29 29 30 30 30 30 30 31 31 31 31 30 30 31 32 32 32 32
24 23 21 20 24 26 24 28 29 30 30 27 25 25 24 24 23 22 20 18 17 15 13 26 27 28 29 29 30 30 30 30 31 31 31 30 30 30 29 29 31 32 32 32
26 26 24 25 26 26 28 28 26 30 28 27 25 21 19 19 21 17 16 14 11 17 29 30 30 29 29 29 29 28 29 30 31 31 30 30 30 30 30 31 31 32 31 32
24 24 28 28 27 27 27 29 28 30 26 22 22 15 12 18 16 13 16 17 28 31 31 31 30 29 29 29 28 27 27 27 28 30 30 30 31 31 30 30 31 32 32 32
Wind_Speed
32 31 29 34 38 40 34 15 14 11 25 27 5 20 18 19 28 31 11 13 14 19 25 29 31 44 35 29 34 42 31 4 14 28 26 33 38 40 33 18 13 18 10 15
30 20 27 34 39 44 25 17 7 10 20 21 14 2 8 23 26 28 13 25 28 21 22 23 32 37 31 20 41 39 33 15 11 8 18 21 39 29 27 26 4 30 20 11
27 20 27 33 42 43 23 11 13 7 10 4 10 15 6 14 24 24 17 11 15 19 15 12 11 30 23 35 34 33 34 22 39 44 40 13 31 35 35 28 28 18 35 14
26 22 28 35 43 42 19 7 8 10 15 17 10 14 9 20 17 17 28 21 22 29 21 19 15 19 23 19 36 36 33 43 29 34 19 16 31 27 35 38 38 28 28 26
23 25 34 39 43 41 8 10 9 7 11 15 24 16 7 18 28 22 17 22 26 24 23 27 18 9 10 25 20 25 16 22 28 24 26 24 22 35 39 40 31 37 21 23
17 23 36 42 43 35 6 6 4 12 11 13 15 11 22 10 21 20 37 38 24 29 35 18 9 6 11 4 15 22 27 20 27 33 23 18 22 41 33 32 33 29 33 20
22 24 26 35 40 36 6 7 10 6 6 16 16 12 14 25 27 27 31 37 33 30 10 11 5 5 15 18 23 15 23 19 19 12 12 23 16 16 27 17 21 27 20 18
26 29 32 37 40 35 6 7 6 5 5 7 11 12 11 12 21 30 24 22 36 9 16 11 4 4 3 3 32 29 21 15 5 11 24 1 14 16 29 14 23 20 11 6
22 29 33 34 34 34 7 5 6 4 4 13 14 14 9 6 5 17 19 24 18 17 9 9 16 10 6 6 5 15 14 15 17 9 9 23 8 13 8 7 18 10 10 7
19 29 30 31 31 31 11 2 3 5 4 3 5 5 7 5 6 5 5 11 18 19 26 11 14 19 10 9 8 6 15 5 14 13 7 7 12 11 22 14 9 1 8 11
20 25 23 27 28 27 21 5 7 6 3 2 7 5 5 5 5 4 6 3 11 9 24 17 6 9 12 7 9 21 14 14 8 5 4 9 13 10 17 18 9 15 17 15
23 20 19 28 28 26 20 5 8 8 3 0 2 2 1 2 6 4 3 11 10 15 11 7 7 5 9 16 16 7 15 14 12 16 12 10 6 10 18 18 15 11 21 21
9 21 15 15 18 23 21 5 12 5 4 4 4 5 9 10 6 4 5 5 7 5 5 9 7 6 9 13 10 14 10 18 10 15 14 13 7 9 10 19 16 17 18 21
13 13 15 17 16 18 16 6 7 10 4 5 6 6 4 8 11 15 14 16 18 13 0 4 3 5 1 13 9 12 10 23 17 9 4 8 8 14 16 15 18 20 17 17
4 10 17 19 20 19 15 4 2 6 7 3 4 1 5 4 5 14 26 25 20 15 4 3 7 4 4 2 2 10 10 19 21 12 14 11 14 19 19 23 21 20 23 19
20 11 16 16 17 22 7 3 6 4 3 3 4 2 2 4 6 5 4 26 22 12 8 4 5 3 5 3 5 7 4 1 14 9 17 14 21 20 19 22 21 19 20 19
21 17 11 15 25 10 5 3 1 14 10 4 3 3 3 5 3 5 3 3 3 2 5 4 8 6 10 6 6 13 6 11 8 13 22 19 21 19 19 20 19 19 17 16
21 21 21 20 17 10 4 5 5 3 6 2 3 3 4 4 2 1 3 3 2 4 4 3 4 10 6 4 9 20 14 16 18 19 16 18 20 20 15 20 20 19 18 16
8 14 12 6 6 3 0 2 7 5 2 3 4 5 4 3 2 2 2 2 4 2 0 5 4 4 6 7 11 22 22 14 18 22 23 22 23 20 17 20 17 17 14 13
11 3 2 4 4 12 8 2 2 3 2 3 3 3 1 1 1 3 2 1 4 2 3 6 3 4 6 7 7 18 20 21 21 24 17 18 18 18 15 12 14 14 13 12
4 3 2 7 20 3 1 2 1 3 3 3 2 3 5 4 4 2 3 2 2 2 1 5 5 5 7 15 18 18 16 15 16 15 15 14 14 13 14 11 10 12 13 14
3 4 5 7 7 6 3 4 5 3 2 2 1 4 3 2 2 2 2 3 2 2 7 6 9 8 18 25 21 20 20 22 20 19 19 17 17 14 14 11 9 14 18 18
2 3 2 3 3 2 3 2 1 3 2 5 5 3 2 3 6 3 3 2 1 6 2 3 4 15 18 19 18 18 18 20 20 17 15 15 15 14 14 15 13 16 19 14
3 1 2 4 3 4 2 5 6 5 1 10 8 4 4 3 3 2 3 2 1 1 1 1 10 21 20 19 17 17 15 15 15 14 14 14 13 12 12 12 11 14 15 14
3 4 2 2 2 4 3 6 6 4 6 7 3 2 3 3 3 3 3 1 1 2 2 7 14 18 20 20 18 16 16 15 15 14 12 11 10 11 10 8 9 10 12 13
3 3 1 1 4 2 3 5 6 2 2 3 3 2 2 1 4 3 2 3 3 1 4 14 17 18 17 18 17 16 17 17 13 11 10 11 11 10 10 9 10 11 13 14
3 2 1 3 5 4 3 4 5 6 3 3 2 1 3 4 2 4 3 0 5 9 11 11 14 18 18 18 18 17 16 15 13 11 10 9 10 11 11 12 11 13 13 14
Wind_Direction
300 290 222 202 191 184 166 160 181 172 159 208 208 222 211 204 214 234 258 191 189 201 207 207 191 211 210 198 192 200 206 244 214 211 214 203 203 209 203 202 193 228 219 245
305 272 197 186 185 171 158 173 139 153 164 219 201 209 226 205 205 207 204 205 210 212 203 211 219 212 217 230 191 200 192 208 207 263 261 227 204 209 214 223 227 224 208 231
306 233 191 187 181 165 161 149 161 170 186 268 215 212 235 191 213 196 202 233 204 203 223 230 235 232 215 219 202 197 193 211 208 215 221 167 204 198 207 209 223 224 227 213
306 218 192 186 177 164 164 135 174 163 183 195 197 183 234 199 192 208 195 221 202 197 209 240 252 246 237 221 216 203 190 218 217 231 240 226 222 214 210 211 222 215 227 223
294 213 192 179 170 170 159 139 144 161 153 153 185 188 218 214 210 183 218 217 216 207 202 200 219 208 251 222 227 218 172 233 224 225 223 239 239 230 220 221 222 227 218 218
263 199 179 173 165 176 146 185 154 149 168 163 174 208 219 228 217 214 209 210 214 214 222 210 196 172 279 243 198 232 197 229 198 224 209 211 225 227 214 222 226 217 218 215
213 175 157 159 168 184 122 137 128 119 158 184 186 180 206 238 247 235 213 212 213 223 143 115 65 64 244 237 248 250 207 220 187 196 162 215 246 206 227 221 235 224 217 201
178 173 171 179 181 185 149 166 136 153 174 167 170 184 184 226 250 251 263 229 217 214 192 192 204 210 213 276 232 206 231 177 160 173 199 331 251 233 200 195 241 245 213 223
174 177 177 178 178 187 194 154 144 87 109 212 192 179 179 170 268 213 240 266 267 202 186 169 206 212 161 189 212 154 127 177 173 158 193 213 194 209 130 110 233 231 234 217
176 177 177 180 179 187 184 113 106 146 222 327 286 227 190 166 276 234 206 226 233 238 212 184 187 213 177 204 186 168 134 148 174 154 177 249 234 180 109 175 227 81 165 148
181 173 188 179 179 186 189 154 174 171 172 353 35 22 145 165 184 307 345 220 213 242 216 205 152 203 187 191 217 210 194 161 162 152 157 235 195 168 157 205 173 120 103 118
167 181 193 188 183 183 174 171 153 89 106 279 17 4 59 56 171 185 258 316 295 198 219 159 164 181 166 173 206 198 192 173 172 188 200 236 167 146 144 150 148 131 118 134
139 192 180 182 187 185 181 136 168 106 98 315 214 205 141 118 159 168 201 244 259 241 234 144 166 199 168 174 213 169 203 171 172 169 200 197 176 90 134 138 140 127 124 131
125 145 168 173 157 159 184 190 161 156 129 242 252 131 180 151 176 193 209 236 275 293 260 124 149 179 71 208 191 167 180 178 164 190 225 148 95 171 144 121 125 114 113 127
144 168 170 170 169 170 178 191 29 191 173 233 274 69 178 202 225 257 226 226 235 251 145 178 156 149 142 313 144 167 177 170 172 196 174 160 143 134 130 124 122 124 120 119
34 35 192 172 164 132 110 154 222 168 180 239 266 307 264 295 274 309 324 226 224 205 167 150 145 114 102 213 193 277 186 93 145 153 166 148 147 141 139 128 123 118 125 136
71 53 78 141 142 139 153 196 213 177 127 195 190 260 206 256 302 17 307 337 81 130 137 149 135 154 143 172 195 176 186 215 184 131 136 139 148 146 138 132 128 126 121 121
92 80 68 86 79 69 76 357 40 114 126 232 238 244 215 198 141 311 279 83 74 25 109 55 144 135 152 181 219 173 175 127 130 137 132 131 125 124 129 130 129 125 125 119
141 119 116 73 40 41 314 332 17 12 164 214 210 202 218 198 82 92 311 71 96 35 167 116 105 139 195 203 191 154 146 144 134 118 118 124 132 135 126 131 139 137 141 132
174 211 213 118 193 156 150 6 199 169 215 241 267 116 127 218 77 63 40 341 112 125 311 110 112 179 231 259 163 124 124 126 120 114 129 132 128 137 136 135 135 142 139 140
209 230 73 77 131 116 210 213 293 208 202 206 290 72 132 25 83 83 8 117 234 113 207 145 167 170 158 141 124 119 118 117 115 104 101 122 123 125 122 117 138 144 141 131
314 290 280 149 196 217 219 204 175 216 152 139 85 80 63 87 60 100 48 354 321 105 192 161 168 171 114 104 99 95 95 95 95 99 101 95 93 89 90 80 114 121 124 127
177 191 353 0 320 342 316 274 103 62 105 157 162 119 139 221 207 161 171 154 52 149 82 159 220 144 125 119 114 99 93 96 96 99 101 101 95 80 87 95 91 112 121 123
351 20 17 20 36 46 356 331 339 323 166 128 155 146 165 157 86 28 76 31 197 342 126 298 142 140 131 119 112 112 115 117 121 121 115 112 110 106 96 103 109 119 130 131
40 25 40 96 199 227 266 267 263 307 131 156 186 61 79 60 77 68 104 73 168 246 209 145 138 126 127 129 133 142 146 137 123 122 120 122 125 123 118 121 132 136 137 136
80 46 136 219 207 349 360 345 7 25 22 335 339 73 58 66 137 147 187 181 200 189 86 127 126 126 125 127 130 131 131 130 130 130 134 137 135 131 127 130 138 148 150 147
97 110 25 305 84 52 14 324 347 335 347 17 324 151 181 153 203 194 196 354 120 113 102 106 126 134 133 128 132 137 135 130 132 133 127 128 133 132 137 135 140 142 138 142